Tracking 35030 objects as of 11-Aug-2026
HD Live streaming from Space Station
objects crossing your sky now

SL-16 DEB

Track SL-16 DEB now!
10-day predictions


NORAD ID: 25862
Int'l Code: 1999-039C
Launch date: July 17, 1999
Source: Commonwealth of Independent States (former USSR) (CIS)
Launch site: TYURATAM MISSILE AND SPACE COMPLEX (TTMTR)

Note: This is SATELLITE DEBRIS
Your satellite tracking list
Your tracking list is empty




NASA's NSSDC Master Catalog

Two Line Element Set (TLE):
1 25862U 99039C   26223.49509039  .00000457  00000-0  12606-3 0  9991
2 25862  97.7336 197.7823 0154471 316.9693  41.9504 14.44401209420789
Source of the keplerian elements: AFSPC